Zurück zum Katalog

CZ-3C DEB

VEB

AktivHEO
NORAD 38095·DEBRIS·🇨🇳 China

Gestartet Feb 24, 2012 von Xichang Satellite Launch Center

Loading…

Nächste Überflüge (nächste 24 Stunden)

TLE

AktuellSource: Space-Track

Epoche: Sep 14, 2026, 14:12 UTC

1 38095U 12008C   26257.59235234  .00013486  00000-0  15495-2 0  9999
2 38095  21.0021 310.5700 6494713 175.2564 196.8945  3.34879660142907

Verfolge CZ-3C DEB in Echtzeit mit AllMySat

Download on the App Store